Погода в Федоровке

Россия / Тамбовская область     53°26′00″N   40°57′57″E
темп.,
°C
ветер,
м/с
пор.,
м/с
влажн.,
%
обл.,
%
осадки,
мм/ч
давл.,
гПа
погр.,
м
16 июня, ср
ср1600:00+17ссв118998 0.0 100911
03:00+16сз229146 0.0 100814
06:00+18сз249128 0.0 1008141
09:00+22ссз237958 0.5 1009345
12:00+25ссз336098 2.1 10101131
15:00+24сз4467100 3.3 10111156
18:00+21ссз478572 2.1 1012236
21:00+18с468836 2.3 101499
17 июня, чт
чт1700:00+16с411945 0.0 1016261
03:00+13ссв410900 0.0 1018196
06:00+13ссв410870 0.0 1019263
09:00+18ссв59630 0.0 1020521
12:00+21св57521 0.0 10221364
15:00+21ссв57540 0.0 10221422
18:00+20св36690 0.0 1023435
21:00+15св49749 0.0 1024163
18 июня, пт
пт1800:00+14св487428 0.0 1025139
03:00+12св36775 0.0 102691
06:00+14св37823 0.0 1027186
09:00+18св35670 0.0 1028504
12:00+21всв34555 0.0 10281363
15:00+22св34520 0.0 10271554
18:00+22св23670 0.0 1027597
21:00+16юв2279100 0.0 102712
19 июня, сб
сб1900:00+14ююз22853 0.0 102816
03:00+13юз228687 0.0 102911
06:00+16зюз01794 0.0 102960
09:00+20вюв01680 0.0 1029469
12:00+23ююв22590 0.0 10281113
15:00+24ююв12571 0.0 10271362
18:00+24ссв11620 0.0 10261218
21:00+18в11800 0.0 102611
20 июня, вс
вс2000:00+16ююз22863 0.0 102712
03:00+15ююз11874 0.0 102711
06:00+18вюв118030 0.0 102763
09:00+22юв23715 0.0 1027567
12:00+25юв23620 0.0 10261171
15:00+26ююв23560 0.0 10251439
18:00+26юз226649 0.0 1024720
21:00+20юз1180100 0.0 102411